Location: Châteauvieux
(47.2310°N, 1.3828°E)
Time: 23:22:57
(UTC+00:00)

CZ-4B R/B - Pass Details

Date: 15 May 2026
Orbit: 442 x 557 km, 97.8° (Epoch: 11 June)

Event Time Altitude Azimuth Distance (km) Brightness Sun altitude
Exits shadow 20:50:38 21° 132° (SE) 1,070 3.7 -12.4°
Maximum altitude 20:52:32 43° 71° (ENE) 660 3.0 -12.6°
Drops below altitude 10° 20:55:51 10° 359° (N) 1,631 6.0 -13.0°
Sets 20:57:59 0° 353° (N) 2,532 7.2 -13.2°
